Regional Weather Roundup
Issued by NWS Jackson, KY

Home | Current Version | Previous Version | Graphics & Text | Print | Product List | Glossary On
Versions: 1 2 3 4 5 6 7 8 9 10 11 12 13 14 15 16 17 18 19 20 21 22 23 24 25 26 27 28 29 30 31 32 33 34 35 36 37 38 39 40 41 42 43 44 45 46 47 48 49 50
000
ASUS43 KJKL 072110
RWRJKL

EAST KENTUCKY HOURLY WEATHER ROUNDUP
NATIONAL WEATHER SERVICE JACKSON KY
400 PM EST SUN FEB 07 2016

NOTE: "FAIR" INDICATES FEW OR NO CLOUDS BELOW 12,000 FEET WITH
NO SIGNIFICANT WEATHER AND/OR OBSTRUCTIONS TO VISIBILITY.

* THESE REPORTS ARE NOT UNDER NWS QUALITY CONTROL AND MAY NOT
  REPORT WEATHER SUCH AS PRECIPITATION AND FOG.

KYZ079-080-083-085-087-088-110-112-115-119-120-072200
...EASTERN KENTUCKY...

CITY           SKY/WX    TMP DP  RH WIND       PRES   REMARKS
JACKSON        SUNNY     53  21  28 VRB3      29.96F
LONDON         SUNNY     52  19  27 S6        29.97F
SOMERSET*      SUNNY     50  21  32 W10       29.99F
MONTICELLO*    SUNNY     52  23  32 W14G20    30.00F
WILLIAMSBURG*  CLEAR     54  19  26 SW7       29.98F
MIDDLESBORO*   SUNNY     53  20  27 W7        29.97F
HARLAN APT*      N/A     52  18  25 S3        29.96F
HAZARD APT*    CLEAR    N/A N/A N/A SW8       29.97F
BLACK MTN*       N/A     45  23  42 CALM        N/A
BIG SANDY*     CLEAR     53  24  32 SW6       29.95F
MOREHEAD APT*  CLEAR     52  23  32 SW12      29.97F
$$

KYZ035-036-041-042-044-050-067-078-099-072200
...CENTRAL KENTUCKY...

CITY           SKY/WX    TMP DP  RH WIND       PRES   REMARKS
MT STERLING*   SUNNY     52  23  32 W9G20     29.97F
DANVILLE*      SUNNY     50  21  32 SW15      29.97F
RICHMOND*      SUNNY     52  21  30 SW12G17   29.96F
LEXINGTON      SUNNY     52  22  30 SW15      29.94F
FRANKFORT      SUNNY     52  19  27 SW12G22   29.93F
$$

KYZ091>093-OHZ055-061-077-WVZ005-015-034-035-042-072200
...SOUTHERN OHIO/WEST VIRGINIA...

CITY           SKY/WX    TMP DP  RH WIND       PRES   REMARKS
COVINGTON      CLOUDY    50  21  32 S16G23    29.90F
COLUMBUS       PTSUNNY   51  20  29 SW16G26   29.91F
DAYTON         PTSUNNY   51  22  31 SW21G30   29.87F
WILMINGTON     SUNNY     51  24  34 S16G24    29.89F
HUNTINGTON       N/A     54  22  28 W7        29.94F
CHARLESTON       N/A     53  23  31 W6        29.95F
PINEVILLE*       N/A     50  17  26 MISG      29.99F
BECKLEY          N/A     45  20  36 CALM      29.93F
$$

VAZ002-007-008-TNZ017-027-036-066-071-072200
...SOUTHWEST VIRGINIA/EAST TENNESSEE...

CITY           SKY/WX    TMP DP  RH WIND       PRES   REMARKS
BRISTOL        MOSUNNY   50  23  34 NW9       29.96F
KNOXVILLE      MOSUNNY   51  22  31 W3        30.00F
OAK RIDGE      SUNNY     53  22  29 S7        30.00F
CROSSVILLE     SUNNY     50  19  29 W9        29.99F
NASHVILLE      CLOUDY    57  15  19 S13       30.00F
$$

...KEY TO REMARKS...
VSB - VISIBILITY IN MILES
WCI - WIND CHILL INDEX
HX  - HEAT INDEX

$$



USA.gov is the U.S. government's official web portal to all federal, state and local government web resources and services.